Ruidoso, NM

12:13 AM MDT on April 24, 2017 (GMT -0600)
Sierra Blanca Regional

Weather History for KSRR - August, 2013

Change the Weather History Date:

Sunday, August 25, 2013

  Actual Average Record
Temperature  
Mean Temperature 67 °F -  
Max Temperature 77 °F 77 °F 89 °F (2002)
Min Temperature 57 °F 55 °F 46 °F (2010)
Cooling Degree Days 2    
Growing Degree Days 17 (Base 50)    
Moisture  
Dew Point 51 °F    
Average Humidity 59    
Maximum Humidity 88    
Minimum Humidity 36    
Precipitation  
Precipitation 0.00 in - - ()
Sea Level Pressure  
Sea Level Pressure 30.41 in    
Wind  
Wind Speed 5 mph (SE)    
Max Wind Speed 17 mph    
Max Gust Speed 28 mph    
Visibility 10 miles    
Events      
Averages and records for this station are not official NWS values.
T = Trace of Precipitation, MM = Missing Value Source: NWS Daily Summary

Daily Weather History Graph

Daily Weather History Graph

Search for Another Location

Airport or City:

Trip Planner

Search our weather history database for the weather conditions in past years. The results will help you decide how hot, cold, wet, or windy it might be!

Date:

Astronomy

Aug. 25, 2013 Rise Set
Actual Time 6:31 AM MDT 7:35 PM MDT
Civil Twilight 6:05 AM MDT 8:01 PM MDT
Nautical Twilight 5:35 AM MDT 8:31 PM MDT
Astronomical Twilight 5:03 AM MDT 9:03 PM MDT
Moon 10:27 PM MDT (8/25) 11:18 AM MDT (8/25)
Length of Visible Light 13h 55m
Length of Day
13h 04m
Waning Gibbous, 75% of the Moon is Illuminated
Aug 25
Waning Gibbous
Aug 28
Last Quarter
Sep 5
New
Sep 12
First Quarter
Sep 19
Full

Hourly Weather History & Observations

Time (MDT) Temp. Dew Point Humidity Pressure Visibility Wind Dir Wind Speed Gust Speed Precip Events Conditions
12:15 AM 59.0 °F 55.4 °F 88% 30.39 in 10.0 mi Calm Calm - N/A   Overcast
12:35 AM 60.8 °F 55.4 °F 82% 30.39 in 10.0 mi Calm Calm - N/A   Overcast
12:55 AM 60.8 °F 55.4 °F 82% 30.39 in 10.0 mi NNE 3.5 mph - N/A   Overcast
1:15 AM 59.0 °F 55.4 °F 88% 30.39 in 10.0 mi West 4.6 mph - N/A   Mostly Cloudy
1:35 AM 59.0 °F 53.6 °F 82% 30.39 in 10.0 mi Calm Calm - N/A   Partly Cloudy
1:55 AM 60.8 °F 53.6 °F 77% 30.39 in 10.0 mi SE 3.5 mph - N/A   Clear
2:15 AM 60.8 °F 53.6 °F 77% 30.38 in 10.0 mi Calm Calm - N/A   Clear
2:35 AM 60.8 °F 53.6 °F 77% 30.38 in 10.0 mi ENE 3.5 mph - N/A   Clear
2:55 AM 60.8 °F 53.6 °F 77% 30.38 in 10.0 mi Calm Calm - N/A   Clear
3:15 AM 60.8 °F 53.6 °F 77% 30.38 in 10.0 mi Calm Calm - N/A   Clear
3:35 AM 62.6 °F 51.8 °F 68% 30.39 in 10.0 mi Calm Calm - N/A   Clear
3:55 AM 60.8 °F 51.8 °F 72% 30.38 in 10.0 mi South 3.5 mph - N/A   Clear
4:15 AM 59.0 °F 53.6 °F 82% 30.39 in 10.0 mi SW 5.8 mph - N/A   Clear
4:35 AM 59.0 °F 51.8 °F 77% 30.39 in 10.0 mi SSE 3.5 mph - N/A   Clear
4:55 AM 59.0 °F 51.8 °F 77% 30.40 in 10.0 mi South 3.5 mph - N/A   Clear
5:15 AM 59.0 °F 51.8 °F 77% 30.40 in 10.0 mi Calm Calm - N/A   Clear
5:35 AM 59.0 °F 51.8 °F 77% 30.40 in 10.0 mi Calm Calm - N/A   Clear
5:55 AM 59.0 °F 51.8 °F 77% 30.41 in 10.0 mi Calm Calm - N/A   Clear
6:15 AM 59.0 °F 51.8 °F 77% 30.41 in 10.0 mi East 3.5 mph - N/A   Clear
6:35 AM 57.2 °F 50.0 °F 77% 30.41 in 10.0 mi East 6.9 mph - N/A   Scattered Clouds
6:55 AM 59.0 °F 50.0 °F 72% 30.42 in 10.0 mi East 8.1 mph - N/A   Scattered Clouds
7:15 AM 59.0 °F 51.8 °F 77% 30.43 in 10.0 mi East 3.5 mph - N/A   Scattered Clouds
7:35 AM 60.8 °F 51.8 °F 72% 30.43 in 10.0 mi Calm Calm - N/A   Partly Cloudy
7:55 AM 60.8 °F 53.6 °F 77% 30.43 in 10.0 mi Calm Calm - N/A   Clear
8:15 AM 62.6 °F 53.6 °F 72% 30.43 in 10.0 mi Calm Calm - N/A   Clear
8:35 AM 64.4 °F 53.6 °F 68% 30.43 in 10.0 mi Calm Calm - N/A   Clear
8:55 AM 64.4 °F 53.6 °F 68% 30.44 in 10.0 mi Calm Calm - N/A   Clear
9:15 AM 66.2 °F 53.6 °F 64% 30.44 in 10.0 mi Calm Calm - N/A   Clear
9:35 AM 66.2 °F 51.8 °F 60% 30.44 in 10.0 mi East 3.5 mph - N/A   Clear
9:55 AM 68.0 °F 51.8 °F 56% 30.45 in 10.0 mi ESE 5.8 mph - N/A   Clear
10:15 AM 68.0 °F 53.6 °F 60% 30.45 in 10.0 mi SSE 5.8 mph - N/A   Clear
10:35 AM 69.8 °F 53.6 °F 56% 30.45 in 10.0 mi ESE 8.1 mph - N/A   Clear
10:55 AM 71.6 °F 53.6 °F 53% 30.45 in 10.0 mi SSE 5.8 mph - N/A   Clear
11:15 AM 71.6 °F 53.6 °F 53% 30.44 in 10.0 mi East 11.5 mph 16.1 mph N/A   Partly Cloudy
11:35 AM 71.6 °F 53.6 °F 53% 30.44 in 10.0 mi SE 13.8 mph - N/A   Partly Cloudy
11:55 AM 73.4 °F 53.6 °F 50% 30.44 in 10.0 mi ESE 16.1 mph 25.3 mph N/A   Clear
12:15 PM 73.4 °F 50.0 °F 44% 30.43 in 10.0 mi SSE 11.5 mph 17.3 mph N/A   Clear
12:35 PM 73.4 °F 51.8 °F 47% 30.43 in 10.0 mi SE 12.7 mph 17.3 mph N/A   Partly Cloudy
12:55 PM 73.4 °F 51.8 °F 47% 30.43 in 10.0 mi ESE 13.8 mph 17.3 mph N/A   Scattered Clouds
1:15 PM 73.4 °F 50.0 °F 44% 30.42 in 10.0 mi SE 15.0 mph 20.7 mph N/A   Scattered Clouds
1:35 PM 73.4 °F 51.8 °F 47% 30.42 in 10.0 mi ESE 13.8 mph 27.6 mph N/A   Scattered Clouds
1:55 PM 73.4 °F 53.6 °F 50% 30.41 in 10.0 mi SE 15.0 mph 25.3 mph N/A   Partly Cloudy
2:15 PM 75.2 °F 51.8 °F 44% 30.41 in 10.0 mi ESE 15.0 mph 20.7 mph N/A   Partly Cloudy
2:35 PM 75.2 °F 50.0 °F 41% 30.40 in 10.0 mi ESE 17.3 mph 25.3 mph N/A   Scattered Clouds
2:55 PM 75.2 °F 48.2 °F 38% 30.39 in 10.0 mi SE 17.3 mph 20.7 mph N/A   Partly Cloudy
3:15 PM 77.0 °F 48.2 °F 36% 30.39 in 10.0 mi SSE 16.1 mph 24.2 mph N/A   Scattered Clouds
3:35 PM 75.2 °F 48.2 °F 38% 30.39 in 10.0 mi SE 17.3 mph 23.0 mph N/A   Scattered Clouds
3:55 PM 75.2 °F 48.2 °F 38% 30.39 in 10.0 mi SSE 12.7 mph 19.6 mph N/A   Mostly Cloudy
4:15 PM 75.2 °F 48.2 °F 38% 30.38 in 10.0 mi SE 16.1 mph 23.0 mph N/A   Mostly Cloudy
4:35 PM 75.2 °F 48.2 °F 38% 30.38 in 10.0 mi SE 15.0 mph 26.5 mph N/A   Scattered Clouds
4:55 PM 73.4 °F 48.2 °F 41% 30.38 in 10.0 mi SE 13.8 mph 26.5 mph N/A   Mostly Cloudy
5:15 PM 75.2 °F 48.2 °F 38% 30.38 in 10.0 mi ESE 17.3 mph 23.0 mph N/A   Mostly Cloudy
5:35 PM 75.2 °F 48.2 °F 38% 30.38 in 10.0 mi SSE 16.1 mph 19.6 mph N/A   Mostly Cloudy
5:55 PM 75.2 °F 48.2 °F 38% 30.38 in 10.0 mi SSE 16.1 mph 23.0 mph N/A   Mostly Cloudy
6:15 PM 75.2 °F 48.2 °F 38% 30.38 in 10.0 mi SE 17.3 mph 23.0 mph N/A   Scattered Clouds
6:35 PM 73.4 °F 48.2 °F 41% 30.38 in 10.0 mi SSE 12.7 mph 20.7 mph N/A   Clear
6:55 PM 71.6 °F 48.2 °F 43% 30.38 in 10.0 mi SSE 11.5 mph - N/A   Clear
7:15 PM 71.6 °F 48.2 °F 43% 30.38 in 10.0 mi SSE 10.4 mph - N/A   Clear
7:35 PM 69.8 °F 50.0 °F 49% 30.39 in 10.0 mi SSE 6.9 mph - N/A   Scattered Clouds
7:55 PM 69.8 °F 50.0 °F 49% 30.40 in 10.0 mi SE 10.4 mph - N/A   Scattered Clouds
8:15 PM 68.0 °F 50.0 °F 52% 30.41 in 10.0 mi SE 9.2 mph - N/A   Clear
8:35 PM 68.0 °F 50.0 °F 52% 30.41 in 10.0 mi SSE 9.2 mph - N/A   Clear
8:55 PM 66.2 °F 50.0 °F 56% 30.42 in 10.0 mi SSE 9.2 mph - N/A   Clear
9:15 PM 66.2 °F 51.8 °F 60% 30.43 in 10.0 mi SSE 8.1 mph - N/A   Clear
9:35 PM 64.4 °F 50.0 °F 59% 30.44 in 10.0 mi South 6.9 mph - N/A   Clear
9:55 PM 64.4 °F 50.0 °F 59% 30.44 in 10.0 mi SSE 4.6 mph - N/A   Clear
10:15 PM 64.4 °F 50.0 °F 59% 30.45 in 10.0 mi Calm Calm - N/A   Clear
10:35 PM 64.4 °F 50.0 °F 59% 30.45 in 10.0 mi ESE 3.5 mph - N/A   Clear
10:55 PM 64.4 °F 50.0 °F 59% 30.45 in 10.0 mi Calm Calm - N/A   Clear
11:15 PM 64.4 °F 50.0 °F 59% 30.45 in 10.0 mi East 3.5 mph - N/A   Clear
11:35 PM 64.4 °F 50.0 °F 59% 30.45 in 10.0 mi ESE 4.6 mph - N/A   Clear
11:55 PM 64.4 °F 50.0 °F 59% 30.45 in 10.0 mi SE 3.5 mph - N/A   Partly Cloudy